Regional Weather Roundup
Issued by NWS

Home | Current Version | Previous Version | Graphics & Text | Print | Product List | Glossary On
Versions: 1 2 3 4 5 6 7 8 9 10 11 12 13 14 15 16 17 18 19 20 21 22 23 24 25 26 27 28 29 30 31 32 33 34 35 36 37 38 39 40 41 42 43 44 45 46 47 48 49 50
000
ASUS45 KABQ 122310
RWRNM
WEATHER ROUNDUP FOR NEW MEXICO
NATIONAL WEATHER SERVICE ALBUQUERQUE NM
500 PM MDT SAT JUL 12 2014

NOTE: "FAIR" MEANS FEW OR NO CLOUDS BELOW 12,000 FEET AGL WITH NO
       SIGNIFICANT WEATHER OR OBSTRUCTIONS TO VISION.

      THIS PRODUCT IS RELEASED AS TWO VERSIONS.  ONE VERSION NEAR
      THE TOP OF THE HOUR CONTAINING PRELIMINARY DATA FROM ALBUQUERQUE
      AND OTHER STATIONS.  A FINAL VERSION WITH ADDITIONAL DATA IS
      ISSUED ABOUT 10 MINUTES AFTER THE HOUR.

NMZ501-503-504-510>518-130000-
NORTHWEST PLATEAU/NORTHCENTRAL MOUNTAINS

CITY           SKY/WX    TMP DP  RH WIND       PRES   REMARKS
FARMINGTON     SUNNY     80  51  36 N21       30.17F
LOS ALAMOS     PTSUNNY   84  44  23 SE9G17    30.30F
SANTA FE       MOSUNNY   85  47  26 E10       30.21F
TAOS             N/A    N/A N/A N/A MISG        N/A
ANGEL FIRE     FAIR      73  48  40 SW13      30.41S

$$
NMZ402-403-502-505>509-130000-
WESTCENTRAL MOUNTAINS/SOUTHWEST MOUNTAINS

CITY           SKY/WX    TMP DP  RH WIND       PRES   REMARKS
GALLUP         MOSUNNY   89  44  20 N15G21    30.21F
GRANTS         MOSUNNY   89  44  21 S3        30.24F
SILVER CITY    PTSUNNY   82  46  28 N16       30.18F

$$
NMZ407-409-411-412-130000-
SOUTHERN DESERTS

CITY           SKY/WX    TMP DP  RH WIND       PRES   REMARKS
LORDSBURG      FAIR      93  50  22 S5        30.04F
DEMING         SUNNY     95  51  22 VRB7      30.04F
LAS CRUCES     PTSUNNY   86  52  31 SE16G22   30.12R
ALAMOGORDO     CLOUDY    72  59  64 S17G28    30.12S
T OR C         MOSUNNY   91  49  23 VRB5      30.10F

$$
NMZ519>523-130000-
CENTRAL VALLEYS/CENTRAL HIGHLANDS

CITY           SKY/WX    TMP DP  RH WIND       PRES   REMARKS
ALBUQUERQUE    MOSUNNY   91  52  26 CALM      30.14F
DOUBLE EAGLE   PTSUNNY   88  54  31 SW12      30.19F
MORIARTY ARPT  FAIR      86  47  25 SE10      30.23S
CLINES CORNERS SUNNY     82  44  26 SE14G21   30.29F
BELEN          FAIR      88  52  29 NW7       30.12F
SOCORRO        FAIR      93  47  20 SE14      30.10F

$$
NMZ524>526-539-540-130000-
SOUTHCENTRAL MOUNTAINS

CITY           SKY/WX    TMP DP  RH WIND       PRES   REMARKS
RUIDOSO        NOT AVBL

$$
NMZ527>531-130000-
NORTHEAST HIGHLANDS/NORTHEAST PLAINS

CITY           SKY/WX    TMP DP  RH WIND       PRES   REMARKS
LAS VEGAS      MOSUNNY   82  47  29 S14G21    30.29F
RATON          MOSUNNY   89  44  20 S8G25     30.22S
CLAYTON        SUNNY     89  45  21 SE16G25   30.16F

$$
NMZ532>537-130000-
EASTCENTRAL PLAINS

CITY           SKY/WX    TMP DP  RH WIND       PRES   REMARKS
TUCUMCARI      SUNNY     90  55  30 S9        30.10F
CANNON AFB     NOT AVBL
CLOVIS AIRPORT NOT AVBL

$$
NMZ028-029-538-130000-
SOUTHEAST PLAINS

CITY           SKY/WX    TMP DP  RH WIND       PRES   REMARKS
ROSWELL        SUNNY     90  54  29 MISG      30.07F
ARTESIA        MOSUNNY   90  55  31 SW3       30.06F
CARLSBAD       MOSUNNY   86  55  34 S21G33    30.06R
HOBBS          MOSUNNY   90  54  29 SE14G24   30.11F


$$



USA.gov is the U.S. government's official web portal to all federal, state and local government web resources and services.